Location: Newark
(45.8667°N, 9.7333°E)
Time: 15:17:26
(UTC+00:00)

Vanguard 3 - Pass Details

Date: 31 January 2020
Orbit: 508 x 3263 km, 33.3° (Epoch: 17 February)

Event Time Altitude Azimuth Distance (km) Brightness Sun altitude
Rises 19:27:01 0° 272° (W) 7,177 13.1 -31.8°
Reaches altitude 10° 19:32:09 10° 267° (W) 6,205 12.4 -32.7°
Maximum altitude 19:49:48 43° 205° (SSW) 3,655 10.3 -35.7°
Enters shadow 19:56:13 32° 164° (SSE) 3,754 10.2 -36.8°
Drops below altitude 10° 20:02:58 10° 140° (SE) 4,688 - -38.0°
Sets 20:06:15 0° 134° (SE) 5,354 - -38.5°
